When you browse on this site, cookies collect data to enhance your experience and personalize the content and advertising you see.
Visit our Privacy Policy to learn more. By continuing to use the site, you agree to this use of cookies and data.
  • In Lithuania
  • List of Countries
  • For 7 days
  • Water Temperature
  • Satellite Maps
  • Weather Map
  • Weather Widgets
  • user-avatar
    Login

    Hourly Weather Novonikolskoe

    Today, 26 May, Sunday

    Time Temperature Precipitation Wind Pressure Humidity
    00:00 +16°C° 0 mm 3 mps 740 mmHg 52%
    01:00 +16°C° 0 mm 3 mps 740 mmHg 52%
    02:00 +14°C° 0 mm 4 mps 739 mmHg 52%
    03:00 +14°C° 0 mm 4 mps 739 mmHg 52%
    04:00 +14°C° 0 mm 4 mps 739 mmHg 51%
    05:00 +15°C° 0 mm 5 mps 738 mmHg 51%
    06:00 +16°C° 0 mm 5 mps 738 mmHg 50%
    07:00 +17°C° 0 mm 6 mps 738 mmHg 48%
    08:00 +19°C° 0 mm 6 mps 738 mmHg 47%
    09:00 +20°C° 0 mm 7 mps 739 mmHg 45%
    10:00 +16°C° 0 mm 7 mps 740 mmHg 52%
    11:00 +13°C° 0 mm 8 mps 741 mmHg 58%
    12:00 +11°C° 0 mm 8 mps 742 mmHg 65%
    13:00 +9°C° 0.1 mm 8 mps 744 mmHg 64%
    14:00 +6°C° 0.1 mm 7 mps 746 mmHg 64%
    15:00 +5°C° 0.1 mm 7 mps 748 mmHg 63%
    16:00 +5°C° 0 mm 6 mps 749 mmHg 58%
    17:00 +7°C° 0 mm 6 mps 750 mmHg 52%
    18:00 +7°C° 0 mm 5 mps 750 mmHg 47%
    19:00 +6°C° 0 mm 4 mps 751 mmHg 50%
    20:00 +5°C° 0 mm 3 mps 752 mmHg 54%
    21:00 +6°C° 0 mm 2 mps 752 mmHg 57%
    22:00 +5°C° 0 mm 2 mps 753 mmHg 58%
    23:00 +5°C° 0 mm 2 mps 753 mmHg 59%

    Tomorrow, 27 May, Monday

    Time Temperature Precipitation Wind Pressure Humidity
    00:00 +4°C° 0 mm 2 mps 754 mmHg 60%
    01:00 +4°C° 0 mm 2 mps 754 mmHg 62%
    02:00 +3°C° 0 mm 2 mps 755 mmHg 64%
    03:00 +3°C° 0 mm 2 mps 755 mmHg 66%
    04:00 +4°C° 0 mm 2 mps 756 mmHg 64%
    05:00 +3°C° 0 mm 3 mps 756 mmHg 62%
    06:00 +4°C° 0 mm 3 mps 756 mmHg 59%
    07:00 +7°C° 0 mm 3 mps 757 mmHg 52%
    08:00 +8°C° 0 mm 4 mps 757 mmHg 45%
    09:00 +11°C° 0 mm 4 mps 757 mmHg 38%
    10:00 +11°C° 0 mm 4 mps 757 mmHg 37%
    11:00 +12°C° 0 mm 4 mps 757 mmHg 36%
    12:00 +13°C° 0 mm 4 mps 757 mmHg 36%
    13:00 +13°C° 0 mm 4 mps 757 mmHg 35%
    14:00 +14°C° 0 mm 4 mps 757 mmHg 35%
    15:00 +15°C° 0 mm 4 mps 757 mmHg 34%
    16:00 +15°C° 0 mm 4 mps 757 mmHg 35%
    17:00 +16°C° 0 mm 3 mps 757 mmHg 36%
    18:00 +16°C° 0 mm 3 mps 757 mmHg 37%
    19:00 +13°C° 0 mm 3 mps 757 mmHg 42%
    20:00 +11°C° 0 mm 3 mps 758 mmHg 48%
    21:00 +10°C° 0 mm 2 mps 758 mmHg 54%
    22:00 +9°C° 0 mm 2 mps 758 mmHg 58%
    23:00 +9°C° 0 mm 3 mps 758 mmHg 61%

    Day after tomorrow, 28 May, Tuesday

    Time Temperature Precipitation Wind Pressure Humidity
    00:00 +8°C° 0 mm 3 mps 758 mmHg 65%
    01:00 +8°C° 0 mm 3 mps 758 mmHg 64%
    02:00 +7°C° 0 mm 3 mps 758 mmHg 64%
    03:00 +7°C° 0 mm 3 mps 757 mmHg 63%
    04:00 +8°C° 0 mm 3 mps 757 mmHg 60%
    05:00 +8°C° 0 mm 4 mps 757 mmHg 58%
    06:00 +8°C° 0 mm 4 mps 757 mmHg 55%
    07:00 +10°C° 0.1 mm 4 mps 757 mmHg 57%
    08:00 +9°C° 0.1 mm 5 mps 756 mmHg 59%
    09:00 +9°C° 0.1 mm 5 mps 756 mmHg 60%
    10:00 +11°C° 0 mm 6 mps 755 mmHg 56%
    11:00 +14°C° 0 mm 6 mps 755 mmHg 51%
    12:00 +17°C° 0 mm 6 mps 754 mmHg 47%
    13:00 +19°C° 0 mm 6 mps 754 mmHg 44%
    14:00 +21°C° 0 mm 6 mps 753 mmHg 41%
    15:00 +22°C° 0 mm 6 mps 752 mmHg 38%
    16:00 +22°C° 0 mm 6 mps 752 mmHg 39%
    17:00 +21°C° 0 mm 6 mps 752 mmHg 41%
    18:00 +21°C° 0 mm 5 mps 751 mmHg 42%
    19:00 +20°C° 0 mm 5 mps 751 mmHg 46%
    20:00 +18°C° 0 mm 4 mps 751 mmHg 51%
    21:00 +17°C° 0 mm 4 mps 751 mmHg 55%
    22:00 +15°C° 0 mm 4 mps 751 mmHg 57%
    23:00 +14°C° 0 mm 3 mps 751 mmHg 59%

    29 May, Wednesday

    Time Temperature Precipitation Wind Pressure Humidity
    00:00 +14°C° 0 mm 3 mps 751 mmHg 61%
    01:00 +13°C° 0 mm 3 mps 751 mmHg 62%
    02:00 +13°C° 0 mm 3 mps 751 mmHg 64%
    03:00 +12°C° 0 mm 3 mps 751 mmHg 65%
    04:00 +13°C° 0 mm 4 mps 751 mmHg 63%
    05:00 +13°C° 0 mm 4 mps 751 mmHg 60%
    06:00 +14°C° 0 mm 4 mps 750 mmHg 57%
    07:00 +15°C° 0 mm 4 mps 750 mmHg 54%
    08:00 +17°C° 0 mm 4 mps 750 mmHg 50%
    09:00 +17°C° 0 mm 5 mps 750 mmHg 47%
    10:00 +20°C° 0 mm 5 mps 749 mmHg 42%
    11:00 +22°C° 0 mm 5 mps 749 mmHg 37%
    12:00 +24°C° 0 mm 6 mps 748 mmHg 33%
    13:00 +24°C° 0 mm 6 mps 748 mmHg 32%
    14:00 +26°C° 0 mm 6 mps 747 mmHg 31%
    15:00 +27°C° 0 mm 6 mps 747 mmHg 30%
    16:00 +26°C° 0 mm 5 mps 746 mmHg 32%
    17:00 +26°C° 0 mm 5 mps 746 mmHg 34%
    18:00 +26°C° 0 mm 5 mps 745 mmHg 36%
    19:00 +22°C° 0.4 mm 4 mps 745 mmHg 49%
    20:00 +20°C° 0.4 mm 3 mps 745 mmHg 61%
    21:00 +18°C° 0.4 mm 2 mps 745 mmHg 74%
    22:00 +17°C° 1.2 mm 2 mps 744 mmHg 79%
    23:00 +16°C° 1.2 mm 2 mps 744 mmHg 84%

    30 May, Thursday

    Time Temperature Precipitation Wind Pressure Humidity
    00:00 +16°C° 1.2 mm 3 mps 744 mmHg 88%
    01:00 +14°C° 0.6 mm 3 mps 743 mmHg 90%
    02:00 +14°C° 0.6 mm 3 mps 743 mmHg 91%
    03:00 +14°C° 0.6 mm 3 mps 743 mmHg 92%
    04:00 +14°C° 0.3 mm 4 mps 742 mmHg 92%
    05:00 +14°C° 0.3 mm 4 mps 742 mmHg 92%
    06:00 +14°C° 0.3 mm 4 mps 741 mmHg 92%
    07:00 +15°C° 0.3 mm 4 mps 741 mmHg 89%
    08:00 +15°C° 0.3 mm 4 mps 740 mmHg 86%
    09:00 +17°C° 0.3 mm 4 mps 740 mmHg 84%
    10:00 +17°C° 0.7 mm 3 mps 739 mmHg 81%
    11:00 +18°C° 0.7 mm 3 mps 739 mmHg 78%
    12:00 +19°C° 0.7 mm 3 mps 739 mmHg 76%
    13:00 +19°C° 0.9 mm 4 mps 738 mmHg 73%
    14:00 +19°C° 0.9 mm 4 mps 738 mmHg 71%
    15:00 +19°C° 0.9 mm 5 mps 738 mmHg 68%
    16:00 +17°C° 0.4 mm 5 mps 738 mmHg 71%
    17:00 +16°C° 0.4 mm 5 mps 739 mmHg 73%
    18:00 +15°C° 0.4 mm 5 mps 739 mmHg 76%
    19:00 +14°C° 0.1 mm 4 mps 739 mmHg 80%
    20:00 +12°C° 0.1 mm 3 mps 739 mmHg 85%
    21:00 +12°C° 0.1 mm 2 mps 739 mmHg 89%
    22:00 +10°C° 0 mm 2 mps 739 mmHg 90%
    23:00 +9°C° 0 mm 2 mps 739 mmHg 91%

    31 May, Friday

    Time Temperature Precipitation Wind Pressure Humidity
    00:00 +10°C° 0 mm 1 mps 739 mmHg 92%
    01:00 +8°C° 0 mm 2 mps 739 mmHg 93%
    02:00 +8°C° 0 mm 2 mps 739 mmHg 95%
    03:00 +8°C° 0 mm 2 mps 740 mmHg 96%
    04:00 +8°C° 0.2 mm 2 mps 740 mmHg 95%
    05:00 +9°C° 0.2 mm 3 mps 740 mmHg 94%
    06:00 +9°C° 0.2 mm 3 mps 740 mmHg 93%
    07:00 +10°C° 0.1 mm 3 mps 740 mmHg 88%
    08:00 +10°C° 0.1 mm 3 mps 740 mmHg 83%
    09:00 +11°C° 0.1 mm 3 mps 740 mmHg 78%
    10:00 +12°C° 0.1 mm 3 mps 740 mmHg 70%
    11:00 +13°C° 0.1 mm 3 mps 740 mmHg 62%
    12:00 +14°C° 0.1 mm 3 mps 740 mmHg 54%
    13:00 +14°C° 0.1 mm 3 mps 740 mmHg 53%
    14:00 +14°C° 0.1 mm 4 mps 740 mmHg 52%
    15:00 +14°C° 0.1 mm 4 mps 740 mmHg 51%
    16:00 +14°C° 0 mm 4 mps 740 mmHg 50%
    17:00 +14°C° 0 mm 3 mps 740 mmHg 48%
    18:00 +14°C° 0 mm 3 mps 740 mmHg 46%
    19:00 +13°C° 0 mm 3 mps 740 mmHg 56%
    20:00 +12°C° 0 mm 2 mps 740 mmHg 65%
    21:00 +9°C° 0 mm 2 mps 740 mmHg 74%
    22:00 +8°C° 0 mm 2 mps 740 mmHg 77%
    23:00 +8°C° 0 mm 2 mps 740 mmHg 80%
    Show more